STARLINK-32451, 61857

Orbit data source: Space-Track

STARLINK-32451, 61857 is a payload satellite owned by SpaceX/Seattle (US) in LEO that was launched on Thu, 07 Nov 2024 UTC via an FALCON 9 launch vehicle from the Air Force Eastern Test Range (AFETR). Payload-class satellites include a variety of spacecraft equipped with specific instruments for various scientific and technological missions. These include communications satellites like Starlink; space stations such as the ISS; scientific satellites like the Hubble; Earth observation satellites from companies like Planet Labs, Umbra, and HawkEye 360; GPS; miniature CubeSats for education and research; and military/defense satellites.

Loading next visibility...
Identifier
61857, 2024-202N
Orbit
LEO
Country
Flag of USUS
Related business
Manufacturer
SpaceX/Seattle
Mission
Operational Commercial Communications
Bus & Motor
STARLINK V2M, Unknown motor
Mass
730 kg wet, ~700 kg dry
Launch date (UTC)
2024-11-07 (1 year ago)
Launch vehicle
FALCON 9
Launch site
Air Force Eastern Test Range (AFETR)
Object type
Payload
Rocket body
Debris
Shape & HBR
Box + 2 Pan, 17.7 m
Radar Cross Section
33.884 m², Large (>1 m²)

Expand to show TLE details & history
Last TLE update: 17 hours ago

TLE from 17 hours ago
0 STARLINK-32451
1 61857U 24202N   25352.38661753 -.00002910  00000-0 -96237-4 0  9998
2 61857  43.0006 337.1281 0000813 289.1183  70.9581 15.27591898 62903
Epoch: 2025-12-18T09:16Z
TLE epoch observation values (Epoch: 2025-12-18T09:16:43.754Z)
Latitude
Longitude
110.70293°
Altitude
482.607 km
Speed
7.626 km/s
True Right ascension
22h 28m 30s
True Declination
0° 00' 00"
Sunlit
Object was in daylight at epoch
Visualization orbit readout
Latitude
Unknown
Longitude
Unknown
Altitude
Unknown
Speed
Unknown
Apparent Right ascension
Unknown
Apparent Declination
Unknown
Sunlit
N/A
Visualization observer readout
Local Sidereal Time
01:06:17
Azimuth
Unknown
Elevation
Unknown
Doppler factor
Unknown
Orbital elements
Apogee altitude
485.517 km
Perigee altitude
484.401 km
Semi-major axis
6,863.096 km
Eccentricity
0.00008
Inclination
43.0006°
RAAN
337.1281°
Arg. of periapsis
289.1183°
True anomaly
70.96691°
Mean anomaly
70.9581°
Eccentric anomaly
70.9625°
Mean motion
3.81736 °/min
Orbital period
94.31 mins
BSTAR
-0.000096237
Loading maneuver chart data...
Computing Atmospheric mass density...
Loading historical data...
Loading historical data...
Loading historical data...
Loading historical data...
Loading historical data...
Loading historical data...
Loading historical data...

Documentation

Showing up to 5 results
|